Time,TemperatureF,DewpointF,PressureIn,WindDirection,WindDirectionDegrees,WindSpeedMPH,WindSpeedGustMPH,Humidity,HourlyPrecipIn,Conditions,Clouds,dailyrainin,SoftwareType,DateUTC
2013-07-27 00:01:00,78.1,76.2,29.98,NE,45,0.0,0.0,94,0.00,OVC,,0.00,WeatherDisplay:10.37,2013-07-27 04:01:00,
2013-07-27 00:02:00,77.9,76.0,29.98,NE,45,0.0,0.0,94,0.00,OVC,,0.00,WeatherDisplay:10.37,2013-07-27 04:02:00,
2013-07-27 00:07:00,77.7,75.9,29.98,NE,45,0.0,0.0,94,0.00,OVC,,0.00,WeatherDisplay:10.37,2013-07-27 04:07:00,
2013-07-27 00:12:00,77.7,75.9,29.98,NE,45,0.0,0.0,94,0.00,OVC,,0.00,WeatherDisplay:10.37,2013-07-27 04:12:00,
2013-07-27 00:17:00,77.5,75.7,29.97,NE,45,0.0,0.0,94,0.00,BKN,,0.00,WeatherDisplay:10.37,2013-07-27 04:17:00,
2013-07-27 00:22:00,77.5,75.7,29.97,NE,45,0.0,0.0,94,0.00,BKN,,0.00,WeatherDisplay:10.37,2013-07-27 04:22:00,
2013-07-27 00:27:00,77.5,76.0,29.97,NE,45,0.0,0.0,95,0.00,BKN,,0.00,WeatherDisplay:10.37,2013-07-27 04:27:00,
2013-07-27 00:32:00,77.4,75.8,29.97,NE,45,0.0,0.0,95,0.00,BKN,,0.00,WeatherDisplay:10.37,2013-07-27 04:32:00,
2013-07-27 00:37:00,77.2,75.6,29.97,NE,45,0.0,0.0,95,0.00,BKN,,0.00,WeatherDisplay:10.37,2013-07-27 04:37:00,
2013-07-27 00:42:00,76.8,75.3,29.97,NE,45,0.0,0.0,95,0.00,BKN,,0.00,WeatherDisplay:10.37,2013-07-27 04:42:00,
2013-07-27 00:47:00,76.6,75.1,29.97,NE,45,0.0,0.0,95,0.00,BKN,,0.00,WeatherDisplay:10.37,2013-07-27 04:47:00,
2013-07-27 00:52:00,76.6,75.1,29.97,NE,45,0.0,0.0,95,0.00,BKN,,0.00,WeatherDisplay:10.37,2013-07-27 04:52:00,
2013-07-27 00:57:00,76.6,75.1,29.97,NE,45,0.0,0.0,95,0.00,BKN,,0.00,WeatherDisplay:10.37,2013-07-27 04:57:00,
2013-07-27 01:02:00,76.6,75.1,29.97,NE,45,0.0,0.0,95,0.00,BKN,,0.00,WeatherDisplay:10.37,2013-07-27 05:02:00,
2013-07-27 01:07:00,76.3,74.7,29.97,NE,45,0.0,0.0,95,0.00,BKN,,0.00,WeatherDisplay:10.37,2013-07-27 05:07:00,
2013-07-27 01:12:00,76.3,74.7,29.96,NE,45,0.0,0.0,95,0.00,BKN,,0.00,WeatherDisplay:10.37,2013-07-27 05:12:00,
2013-07-27 01:17:00,76.1,74.6,29.97,NE,45,0.0,0.0,95,0.00,BKN,,0.00,WeatherDisplay:10.37,2013-07-27 05:17:00,
2013-07-27 01:22:00,76.1,74.9,29.96,NE,45,0.0,0.0,96,0.00,BKN,,0.00,WeatherDisplay:10.37,2013-07-27 05:22:00,
2013-07-27 01:27:00,76.3,75.1,29.96,NE,45,0.0,0.0,96,0.00,BKN,,0.00,WeatherDisplay:10.37,2013-07-27 05:27:00,
2013-07-27 01:32:00,76.3,75.1,29.96,NE,45,0.0,0.0,96,0.00,BKN,,0.00,WeatherDisplay:10.37,2013-07-27 05:32:00,
2013-07-27 01:37:00,76.1,74.9,29.96,NE,45,0.0,0.0,96,0.00,BKN,,0.00,WeatherDisplay:10.37,2013-07-27 05:37:00,
2013-07-27 01:42:00,75.9,74.7,29.96,NE,45,0.0,0.0,96,0.00,BKN,,0.00,WeatherDisplay:10.37,2013-07-27 05:42:00,
2013-07-27 01:47:00,76.1,74.9,29.96,NE,45,0.0,0.0,96,0.00,BKN,,0.00,WeatherDisplay:10.37,2013-07-27 05:47:00,
2013-07-27 01:52:00,76.1,74.9,29.96,NE,45,0.0,0.0,96,0.00,BKN,,0.00,WeatherDisplay:10.37,2013-07-27 05:52:00,
2013-07-27 01:57:00,75.9,74.7,29.96,NE,45,0.0,0.0,96,0.00,BKN,,0.00,WeatherDisplay:10.37,2013-07-27 05:57:00,
2013-07-27 02:02:00,75.7,74.5,29.95,NE,45,0.0,0.0,96,0.00,BKN,,0.00,WeatherDisplay:10.37,2013-07-27 06:02:00,
2013-07-27 02:07:00,75.7,74.5,29.95,NE,45,0.0,0.0,96,0.00,BKN,,0.00,WeatherDisplay:10.37,2013-07-27 06:07:00,
2013-07-27 02:12:00,75.7,74.5,29.95,NE,45,0.0,0.0,96,0.00,BKN,,0.00,WeatherDisplay:10.37,2013-07-27 06:12:00,
2013-07-27 02:17:00,75.6,74.3,29.95,NE,45,0.0,0.0,96,0.00,BKN,,0.00,WeatherDisplay:10.37,2013-07-27 06:17:00,
2013-07-27 02:22:00,75.7,74.5,29.95,NE,45,0.0,0.0,96,0.00,BKN,,0.00,WeatherDisplay:10.37,2013-07-27 06:22:00,
2013-07-27 02:27:00,75.7,74.5,29.95,NE,45,0.0,0.0,96,0.00,BKN,,0.00,WeatherDisplay:10.37,2013-07-27 06:27:00,
2013-07-27 02:32:00,75.7,74.5,29.95,NE,45,0.0,0.0,96,0.00,BKN,,0.00,WeatherDisplay:10.37,2013-07-27 06:32:00,
2013-07-27 02:37:00,75.7,74.5,29.95,NE,45,0.0,0.0,96,0.00,BKN,,0.00,WeatherDisplay:10.37,2013-07-27 06:37:00,
2013-07-27 02:42:00,75.7,74.5,29.95,NE,45,0.0,0.0,96,0.00,BKN,,0.00,WeatherDisplay:10.37,2013-07-27 06:42:00,
2013-07-27 02:47:00,75.4,74.2,29.94,NE,45,0.0,0.0,96,0.00,BKN,,0.00,WeatherDisplay:10.37,2013-07-27 06:47:00,
2013-07-27 02:52:00,75.4,74.2,29.94,NE,45,0.0,0.0,96,0.00,BKN,,0.00,WeatherDisplay:10.37,2013-07-27 06:52:00,
2013-07-27 02:57:00,75.0,73.8,29.94,NE,45,0.0,0.0,96,0.00,BKN,,0.00,WeatherDisplay:10.37,2013-07-27 06:57:00,
2013-07-27 03:02:00,74.8,73.6,29.94,NE,45,0.0,0.0,96,0.00,BKN,,0.00,WeatherDisplay:10.37,2013-07-27 07:02:00,
2013-07-27 03:07:00,74.8,73.6,29.94,NE,45,0.0,0.0,96,0.00,BKN,,0.00,WeatherDisplay:10.37,2013-07-27 07:07:00,
2013-07-27 03:12:00,74.8,73.6,29.94,NE,45,0.0,0.0,96,0.00,BKN,,0.00,WeatherDisplay:10.37,2013-07-27 07:12:00,
2013-07-27 03:17:00,74.8,73.6,29.94,NE,45,0.0,0.0,96,0.00,BKN,,0.00,WeatherDisplay:10.37,2013-07-27 07:17:00,
2013-07-27 03:22:00,74.7,73.4,29.93,NE,45,0.0,0.0,96,0.00,BKN,,0.00,WeatherDisplay:10.37,2013-07-27 07:22:00,
2013-07-27 03:27:00,74.5,73.3,29.93,NE,45,0.0,0.0,96,0.00,BKN,,0.00,WeatherDisplay:10.37,2013-07-27 07:27:00,
2013-07-27 03:32:00,74.7,73.4,29.93,NE,45,0.0,0.0,96,0.00,BKN,,0.00,WeatherDisplay:10.37,2013-07-27 07:32:00,
2013-07-27 03:37:00,74.5,73.3,29.93,NE,45,0.0,0.0,96,0.00,BKN,,0.00,WeatherDisplay:10.37,2013-07-27 07:37:00,
2013-07-27 03:42:00,74.7,73.4,29.93,NE,45,0.0,0.0,96,0.00,BKN,,0.00,WeatherDisplay:10.37,2013-07-27 07:42:00,
2013-07-27 03:47:00,74.5,73.3,29.93,NE,45,0.0,0.0,96,0.00,BKN,,0.00,WeatherDisplay:10.37,2013-07-27 07:47:00,
2013-07-27 03:52:00,74.7,73.8,29.93,NE,45,0.0,0.0,97,0.00,BKN,,0.00,WeatherDisplay:10.37,2013-07-27 07:52:00,
2013-07-27 03:57:00,74.8,73.6,29.93,NE,45,0.0,0.0,96,0.00,BKN,,0.00,WeatherDisplay:10.37,2013-07-27 07:57:00,
2013-07-27 04:02:00,74.7,73.8,29.93,NE,45,0.0,0.0,97,0.00,BKN,,0.00,WeatherDisplay:10.37,2013-07-27 08:02:00,
2013-07-27 04:07:00,74.5,73.6,29.93,NE,45,0.0,0.0,97,0.00,BKN,,0.00,WeatherDisplay:10.37,2013-07-27 08:07:00,
2013-07-27 04:12:00,74.7,73.8,29.93,NE,45,0.0,0.0,97,0.00,BKN,,0.00,WeatherDisplay:10.37,2013-07-27 08:12:00,
2013-07-27 04:17:00,74.8,73.9,29.92,NE,45,0.0,0.0,97,0.00,SCT,,0.00,WeatherDisplay:10.37,2013-07-27 08:17:00,
2013-07-27 04:22:00,74.8,73.9,29.92,NE,45,0.0,0.0,97,0.00,SCT,,0.00,WeatherDisplay:10.37,2013-07-27 08:22:00,
2013-07-27 04:27:00,75.0,74.1,29.93,NE,45,0.0,0.0,97,0.00,SCT,,0.00,WeatherDisplay:10.37,2013-07-27 08:27:00,
2013-07-27 04:32:00,75.0,74.1,29.92,NE,45,0.0,0.0,97,0.00,SCT,,0.00,WeatherDisplay:10.37,2013-07-27 08:32:00,
2013-07-27 04:37:00,75.2,74.3,29.92,NE,45,0.0,0.0,97,0.00,SCT,,0.00,WeatherDisplay:10.37,2013-07-27 08:37:00,
2013-07-27 04:42:00,75.2,74.3,29.92,NE,45,0.0,0.0,97,0.00,SCT,,0.00,WeatherDisplay:10.37,2013-07-27 08:42:00,
2013-07-27 04:47:00,75.4,74.5,29.92,NE,45,0.0,0.0,97,0.00,SCT,,0.00,WeatherDisplay:10.37,2013-07-27 08:47:00,
2013-07-27 04:52:00,75.6,74.6,29.92,NE,45,0.0,0.0,97,0.00,SCT,,0.00,WeatherDisplay:10.37,2013-07-27 08:52:00,
2013-07-27 04:57:00,75.6,74.6,29.92,NE,45,0.0,0.0,97,0.00,SCT,,0.00,WeatherDisplay:10.37,2013-07-27 08:57:00,
2013-07-27 05:02:00,75.7,74.8,29.92,NE,45,0.0,0.0,97,0.00,SCT,,0.00,WeatherDisplay:10.37,2013-07-27 09:02:00,
2013-07-27 05:07:00,75.7,74.8,29.92,NE,45,0.0,0.0,97,0.00,SCT,,0.00,WeatherDisplay:10.37,2013-07-27 09:07:00,
2013-07-27 05:12:00,75.6,74.6,29.93,NE,45,0.0,0.0,97,0.00,SCT,,0.00,WeatherDisplay:10.37,2013-07-27 09:12:00,
2013-07-27 05:17:00,75.6,74.6,29.92,NE,45,0.0,0.0,97,0.00,SCT,,0.00,WeatherDisplay:10.37,2013-07-27 09:17:00,
2013-07-27 05:22:00,75.4,74.5,29.93,NE,45,0.0,0.0,97,0.00,SCT,,0.00,WeatherDisplay:10.37,2013-07-27 09:22:00,
2013-07-27 05:27:00,75.4,74.5,29.93,NE,45,0.0,0.0,97,0.00,SCT,,0.00,WeatherDisplay:10.37,2013-07-27 09:27:00,
2013-07-27 05:32:00,75.2,74.3,29.93,NE,45,0.0,0.0,97,0.00,SCT,,0.00,WeatherDisplay:10.37,2013-07-27 09:32:00,
2013-07-27 05:37:00,75.0,74.1,29.92,NE,45,0.0,0.0,97,0.00,SCT,,0.00,WeatherDisplay:10.37,2013-07-27 09:37:00,
2013-07-27 05:42:00,74.8,73.9,29.93,NE,45,0.0,0.0,97,0.00,SCT,,0.00,WeatherDisplay:10.37,2013-07-27 09:42:00,
2013-07-27 05:47:00,74.8,73.9,29.93,NE,45,0.0,0.0,97,0.00,SCT,,0.00,WeatherDisplay:10.37,2013-07-27 09:47:00,
2013-07-27 05:52:00,74.8,73.9,29.93,NE,45,0.0,0.0,97,0.00,SCT,,0.00,WeatherDisplay:10.37,2013-07-27 09:52:00,
2013-07-27 05:57:00,74.8,73.9,29.93,NE,45,0.0,0.0,97,0.00,SCT,,0.00,WeatherDisplay:10.37,2013-07-27 09:57:00,
2013-07-27 06:02:00,74.8,73.9,29.93,NE,45,0.0,0.0,97,0.00,SCT,,0.00,WeatherDisplay:10.37,2013-07-27 10:02:00,
2013-07-27 06:07:00,75.0,74.1,29.93,NE,45,0.0,0.0,97,0.00,SCT,,0.00,WeatherDisplay:10.37,2013-07-27 10:07:00,
2013-07-27 06:12:00,74.8,73.9,29.93,NE,45,0.0,0.0,97,0.00,SCT,,0.00,WeatherDisplay:10.37,2013-07-27 10:12:00,
2013-07-27 06:17:00,74.8,73.9,29.93,NE,45,0.0,0.0,97,0.00,SCT,,0.00,WeatherDisplay:10.37,2013-07-27 10:17:00,
2013-07-27 06:22:00,74.8,73.9,29.93,NE,45,0.0,0.0,97,0.00,SCT,,0.00,WeatherDisplay:10.37,2013-07-27 10:22:00,
2013-07-27 06:27:00,74.8,73.9,29.93,NE,45,0.0,0.0,97,0.00,SCT,,0.00,WeatherDisplay:10.37,2013-07-27 10:27:00,
2013-07-27 06:32:00,74.8,73.9,29.93,NE,45,0.0,0.0,97,0.00,SCT,,0.00,WeatherDisplay:10.37,2013-07-27 10:32:00,
2013-07-27 06:37:00,74.7,73.8,29.94,NE,45,0.0,0.0,97,0.00,SCT,,0.00,WeatherDisplay:10.37,2013-07-27 10:37:00,
2013-07-27 06:42:00,74.5,73.6,29.93,NE,45,0.0,0.0,97,0.00,SCT,,0.00,WeatherDisplay:10.37,2013-07-27 10:42:00,
2013-07-27 06:47:00,74.5,73.6,29.94,NE,45,0.0,0.0,97,0.00,SCT,,0.00,WeatherDisplay:10.37,2013-07-27 10:47:00,
2013-07-27 06:52:00,74.3,73.4,29.94,NE,45,0.0,0.0,97,0.00,SCT,,0.00,WeatherDisplay:10.37,2013-07-27 10:52:00,
2013-07-27 06:57:00,74.5,73.6,29.94,NE,45,0.0,0.0,97,0.00,SCT,,0.00,WeatherDisplay:10.37,2013-07-27 10:57:00,
2013-07-27 07:02:00,74.5,73.6,29.94,NE,45,0.0,0.0,97,0.00,SCT,,0.00,WeatherDisplay:10.37,2013-07-27 11:02:00,
2013-07-27 07:07:00,74.5,73.6,29.94,NE,45,0.0,0.0,97,0.00,SCT,,0.00,WeatherDisplay:10.37,2013-07-27 11:07:00,
2013-07-27 07:12:00,74.5,73.6,29.94,NE,45,0.0,0.0,97,0.00,SCT,,0.00,WeatherDisplay:10.37,2013-07-27 11:12:00,
2013-07-27 07:17:00,74.8,73.9,29.94,NE,45,0.0,0.0,97,0.00,SCT,,0.00,WeatherDisplay:10.37,2013-07-27 11:17:00,
2013-07-27 07:22:00,74.8,73.9,29.94,NE,45,0.0,0.0,97,0.00,SCT,,0.00,WeatherDisplay:10.37,2013-07-27 11:22:00,
2013-07-27 07:27:00,75.0,74.1,29.94,NE,45,0.0,0.0,97,0.00,SCT,,0.00,WeatherDisplay:10.37,2013-07-27 11:27:00,
2013-07-27 07:32:00,75.4,74.5,29.94,NE,45,0.0,0.0,97,0.00,SCT,,0.00,WeatherDisplay:10.37,2013-07-27 11:32:00,
2013-07-27 07:37:00,75.6,74.6,29.94,NE,45,0.0,0.0,97,0.00,SCT,,0.00,WeatherDisplay:10.37,2013-07-27 11:37:00,
2013-07-27 07:42:00,75.7,74.8,29.94,NE,45,0.0,0.0,97,0.00,SCT,,0.00,WeatherDisplay:10.37,2013-07-27 11:42:00,
2013-07-27 07:47:00,75.9,75.0,29.95,NE,45,0.0,0.0,97,0.00,SCT,,0.00,WeatherDisplay:10.37,2013-07-27 11:47:00,
2013-07-27 07:52:00,76.3,75.4,29.94,NE,45,0.0,0.0,97,0.00,SCT,,0.00,WeatherDisplay:10.37,2013-07-27 11:52:00,
2013-07-27 07:57:00,76.5,75.5,29.95,NE,45,0.0,0.0,97,0.00,SCT,,0.00,WeatherDisplay:10.37,2013-07-27 11:57:00,
2013-07-27 08:02:00,76.6,75.7,29.95,NE,45,0.0,0.0,97,0.00,SCT,,0.00,WeatherDisplay:10.37,2013-07-27 12:02:00,
2013-07-27 08:07:00,77.0,76.1,29.95,NE,45,0.0,0.0,97,0.00,SCT,,0.00,WeatherDisplay:10.37,2013-07-27 12:07:00,
2013-07-27 08:12:00,77.4,76.4,29.95,NE,45,0.0,0.0,97,0.00,SCT,,0.00,WeatherDisplay:10.37,2013-07-27 12:12:00,
2013-07-27 08:17:00,77.7,76.8,29.95,NE,45,0.0,0.0,97,0.00,SCT,,0.00,WeatherDisplay:10.37,2013-07-27 12:17:00,
2013-07-27 08:22:00,77.7,76.8,29.95,NE,45,0.0,0.0,97,0.00,SCT,,0.00,WeatherDisplay:10.37,2013-07-27 12:22:00,
2013-07-27 08:27:00,77.9,77.0,29.95,NE,45,0.0,0.0,97,0.00,SCT,,0.00,WeatherDisplay:10.37,2013-07-27 12:27:00,
2013-07-27 08:32:00,78.1,77.2,29.96,NE,45,0.0,0.0,97,0.00,SCT,,0.00,WeatherDisplay:10.37,2013-07-27 12:32:00,
2013-07-27 08:37:00,78.4,77.5,29.96,NE,45,0.0,0.0,97,0.00,SCT,,0.00,WeatherDisplay:10.37,2013-07-27 12:37:00,
2013-07-27 08:42:00,79.0,78.1,29.96,NE,45,0.0,0.0,97,0.00,SCT,,0.00,WeatherDisplay:10.37,2013-07-27 12:42:00,
2013-07-27 08:47:00,79.2,77.9,29.96,NE,45,0.0,0.0,96,0.00,SCT,,0.00,WeatherDisplay:10.37,2013-07-27 12:47:00,
2013-07-27 08:52:00,79.0,77.4,29.96,NE,45,0.0,0.0,95,0.00,SCT,,0.00,WeatherDisplay:10.37,2013-07-27 12:52:00,
2013-07-27 08:57:00,79.2,77.6,29.96,NE,45,0.0,0.0,95,0.00,SCT,,0.00,WeatherDisplay:10.37,2013-07-27 12:57:00,
2013-07-27 09:03:00,79.9,78.3,29.96,NE,45,0.0,0.0,95,0.00,SCT,,0.00,WeatherDisplay:10.37,2013-07-27 13:03:00,
2013-07-27 09:08:00,80.2,78.4,29.95,NE,45,0.0,0.0,94,0.00,SCT,,0.00,WeatherDisplay:10.37,2013-07-27 13:08:00,
2013-07-27 09:13:00,80.2,77.7,29.96,NE,45,0.0,0.0,92,0.00,SCT,,0.00,WeatherDisplay:10.37,2013-07-27 13:13:00,
2013-07-27 09:17:00,80.8,78.2,29.96,East,90,0.0,0.0,92,0.00,SCT,,0.00,WeatherDisplay:10.37,2013-07-27 13:17:00,
2013-07-27 09:22:00,80.8,78.2,29.96,East,90,0.0,0.0,92,0.00,SCT,,0.00,WeatherDisplay:10.37,2013-07-27 13:22:00,
2013-07-27 09:28:00,81.3,78.1,29.96,East,90,0.0,0.0,90,0.00,SCT,,0.00,WeatherDisplay:10.37,2013-07-27 13:28:00,
2013-07-27 09:33:00,81.9,78.0,29.96,East,90,0.0,0.0,88,0.00,BKN,,0.00,WeatherDisplay:10.37,2013-07-27 13:33:00,
2013-07-27 09:38:00,82.0,78.1,29.95,East,90,0.0,0.0,88,0.00,BKN,,0.00,WeatherDisplay:10.37,2013-07-27 13:38:00,
2013-07-27 09:43:00,82.0,77.8,29.96,East,90,0.0,0.0,87,0.00,BKN,,0.00,WeatherDisplay:10.37,2013-07-27 13:43:00,
2013-07-27 09:47:00,82.0,77.8,29.96,East,90,0.0,0.0,87,0.00,BKN,,0.00,WeatherDisplay:10.37,2013-07-27 13:47:00,
2013-07-27 09:52:00,82.2,77.3,29.96,East,90,0.0,0.0,85,0.00,BKN,,0.00,WeatherDisplay:10.37,2013-07-27 13:52:00,
2013-07-27 09:57:00,82.6,77.3,29.95,East,90,0.0,0.0,84,0.00,BKN,,0.00,WeatherDisplay:10.37,2013-07-27 13:57:00,
2013-07-27 10:02:00,83.7,77.6,29.95,East,90,0.0,0.0,82,0.00,BKN,,0.00,WeatherDisplay:10.37,2013-07-27 14:02:00,
2013-07-27 10:07:00,84.0,78.3,29.95,East,90,0.0,0.0,83,0.00,BKN,,0.00,WeatherDisplay:10.37,2013-07-27 14:07:00,
2013-07-27 10:12:00,84.0,77.6,29.95,SE,135,0.0,0.0,81,0.00,BKN,,0.00,WeatherDisplay:10.37,2013-07-27 14:12:00,
2013-07-27 10:17:00,84.0,77.9,29.95,SE,135,0.0,0.0,82,0.00,BKN,,0.00,WeatherDisplay:10.37,2013-07-27 14:17:00,
2013-07-27 10:22:00,85.1,78.6,29.95,SE,135,0.0,0.0,81,0.00,BKN,,0.00,WeatherDisplay:10.37,2013-07-27 14:22:00,
2013-07-27 10:27:00,85.5,79.0,29.95,SE,135,0.0,0.0,81,0.00,BKN,,0.00,WeatherDisplay:10.37,2013-07-27 14:27:00,
2013-07-27 10:32:00,85.6,78.4,29.95,SE,135,0.0,0.0,79,0.00,BKN,,0.00,WeatherDisplay:10.37,2013-07-27 14:32:00,
2013-07-27 10:37:00,85.8,78.5,29.95,SE,135,0.0,0.0,79,0.00,BKN,,0.00,WeatherDisplay:10.37,2013-07-27 14:37:00,
2013-07-27 10:42:00,86.7,79.0,29.95,SE,135,0.0,0.0,78,0.00,BKN,,0.00,WeatherDisplay:10.37,2013-07-27 14:42:00,
2013-07-27 10:47:00,86.7,78.6,29.95,SE,135,0.0,0.0,77,0.00,BKN,,0.00,WeatherDisplay:10.37,2013-07-27 14:47:00,
2013-07-27 10:52:00,85.8,78.5,29.96,SE,135,0.0,0.0,79,0.00,BKN,,0.00,WeatherDisplay:10.37,2013-07-27 14:52:00,
2013-07-27 10:57:00,86.5,78.9,29.95,SE,135,0.0,0.0,78,0.00,BKN,,0.00,WeatherDisplay:10.37,2013-07-27 14:57:00,
2013-07-27 11:02:00,86.7,78.6,29.95,SE,135,0.0,0.0,77,0.00,BKN,,0.00,WeatherDisplay:10.37,2013-07-27 15:02:00,
2013-07-27 11:07:00,86.2,78.5,29.96,SE,135,0.0,0.0,78,0.00,BKN,,0.00,WeatherDisplay:10.37,2013-07-27 15:07:00,
2013-07-27 11:12:00,86.0,77.9,29.96,SE,135,0.0,0.0,77,0.00,BKN,,0.00,WeatherDisplay:10.37,2013-07-27 15:12:00,
2013-07-27 11:17:00,85.6,78.4,29.96,SE,135,0.0,0.0,79,0.00,BKN,,0.00,WeatherDisplay:10.37,2013-07-27 15:17:00,
2013-07-27 11:22:00,85.8,78.5,29.96,SE,135,0.0,0.0,79,0.00,BKN,,0.00,WeatherDisplay:10.37,2013-07-27 15:22:00,
2013-07-27 11:27:00,86.0,78.3,29.95,SE,135,0.0,0.0,78,0.00,BKN,,0.00,WeatherDisplay:10.37,2013-07-27 15:27:00,
2013-07-27 11:32:00,86.2,78.5,29.95,SE,135,0.0,0.0,78,0.00,BKN,,0.00,WeatherDisplay:10.37,2013-07-27 15:32:00,
2013-07-27 11:37:00,86.4,78.7,29.95,SE,135,0.0,0.0,78,0.00,BKN,,0.00,WeatherDisplay:10.37,2013-07-27 15:37:00,
2013-07-27 11:42:00,86.9,79.6,29.95,SE,135,0.0,0.0,79,0.00,BKN,,0.00,WeatherDisplay:10.37,2013-07-27 15:42:00,
2013-07-27 11:47:00,86.9,78.8,29.95,SE,135,0.0,0.0,77,0.00,BKN,,0.00,WeatherDisplay:10.37,2013-07-27 15:47:00,
2013-07-27 11:52:00,86.9,78.8,29.95,SE,135,0.0,0.0,77,0.00,BKN,,0.00,WeatherDisplay:10.37,2013-07-27 15:52:00,
2013-07-27 11:57:00,86.9,79.2,29.95,SE,135,0.0,0.0,78,0.00,BKN,,0.00,WeatherDisplay:10.37,2013-07-27 15:57:00,
2013-07-27 12:02:00,84.4,76.4,29.95,SE,135,0.0,0.0,77,0.00,BKN,,0.00,WeatherDisplay:10.37,2013-07-27 16:02:00,
2013-07-27 12:07:00,83.8,74.7,29.95,SE,135,0.0,0.0,74,0.00,BKN,,0.00,WeatherDisplay:10.37,2013-07-27 16:07:00,
2013-07-27 12:12:00,82.6,75.0,29.95,SE,135,0.0,0.0,78,0.00,BKN,,0.00,WeatherDisplay:10.37,2013-07-27 16:12:00,
2013-07-27 12:17:00,82.2,75.4,29.95,SE,135,0.0,0.0,80,0.00,BKN,,0.00,WeatherDisplay:10.37,2013-07-27 16:17:00,
2013-07-27 12:22:00,82.6,76.2,29.94,SE,135,0.0,0.0,81,0.00,BKN,,0.00,WeatherDisplay:10.37,2013-07-27 16:22:00,
2013-07-27 12:27:00,83.3,77.2,29.95,SE,135,0.0,0.0,82,0.00,BKN,,0.00,WeatherDisplay:10.37,2013-07-27 16:27:00,
2013-07-27 12:32:00,83.8,76.6,29.94,SE,135,0.0,0.0,79,0.00,BKN,,0.00,WeatherDisplay:10.37,2013-07-27 16:32:00,
2013-07-27 12:37:00,84.0,76.8,29.94,SE,135,0.0,0.0,79,0.00,BKN,,0.00,WeatherDisplay:10.37,2013-07-27 16:37:00,
2013-07-27 12:42:00,84.7,77.1,29.94,East,90,0.0,0.0,78,0.00,BKN,,0.00,WeatherDisplay:10.37,2013-07-27 16:42:00,
2013-07-27 12:47:00,84.9,76.9,29.94,East,90,0.0,0.0,77,0.00,BKN,,0.00,WeatherDisplay:10.37,2013-07-27 16:47:00,
2013-07-27 12:52:00,85.3,78.0,29.93,SE,135,0.0,0.0,79,0.00,BKN,,0.00,WeatherDisplay:10.37,2013-07-27 16:52:00,
2013-07-27 12:57:00,85.8,77.4,29.93,East,90,0.0,1.4,76,0.00,BKN,,0.00,WeatherDisplay:10.37,2013-07-27 16:57:00,
2013-07-27 13:02:00,86.0,77.9,29.94,East,90,0.0,0.0,77,0.00,BKN,,0.00,WeatherDisplay:10.37,2013-07-27 17:02:00,
2013-07-27 13:07:00,86.7,79.0,29.94,East,90,0.0,0.0,78,0.00,BKN,,0.00,WeatherDisplay:10.37,2013-07-27 17:07:00,
2013-07-27 13:12:00,88.3,79.4,29.93,East,90,0.1,1.4,75,0.00,BKN,,0.00,WeatherDisplay:10.37,2013-07-27 17:12:00,
2013-07-27 13:17:00,89.2,79.4,29.93,East,90,0.0,1.2,73,0.00,BKN,,0.00,WeatherDisplay:10.37,2013-07-27 17:17:00,
2013-07-27 13:22:00,91.0,80.3,29.92,NE,45,0.0,0.0,71,0.00,BKN,,0.00,WeatherDisplay:10.37,2013-07-27 17:22:00,
2013-07-27 13:27:00,90.1,79.9,29.92,NE,45,0.0,0.0,72,0.00,BKN,,0.00,WeatherDisplay:10.37,2013-07-27 17:27:00,
2013-07-27 13:32:00,91.8,80.6,29.91,East,90,0.0,0.0,70,0.00,BKN,,0.00,WeatherDisplay:10.37,2013-07-27 17:32:00,
2013-07-27 13:37:00,92.8,79.8,29.91,South,180,0.0,4.6,66,0.00,BKN,,0.00,WeatherDisplay:10.37,2013-07-27 17:37:00,
2013-07-27 13:42:00,93.0,79.5,29.91,South,180,0.0,0.0,65,0.00,BKN,,0.00,WeatherDisplay:10.37,2013-07-27 17:42:00,
2013-07-27 13:47:00,93.7,80.2,29.91,South,180,0.0,0.0,65,0.00,BKN,,0.00,WeatherDisplay:10.37,2013-07-27 17:47:00,
2013-07-27 13:52:00,94.1,80.1,29.91,East,90,0.0,0.0,64,0.00,BKN,,0.00,WeatherDisplay:10.37,2013-07-27 17:52:00,
2013-07-27 13:57:00,93.7,79.7,29.91,East,90,0.0,0.0,64,0.00,BKN,,0.00,WeatherDisplay:10.37,2013-07-27 17:57:00,
2013-07-27 14:02:00,93.0,79.0,29.90,NE,45,0.0,2.3,64,0.00,BKN,,0.00,WeatherDisplay:10.37,2013-07-27 18:02:00,
2013-07-27 14:07:00,93.0,79.5,29.90,SE,135,0.0,0.0,65,0.00,BKN,,0.00,WeatherDisplay:10.37,2013-07-27 18:07:00,
2013-07-27 14:12:00,92.5,79.5,29.90,NE,45,0.0,0.0,66,0.00,BKN,,0.00,WeatherDisplay:10.37,2013-07-27 18:12:00,
2013-07-27 14:17:00,93.0,79.5,29.90,NE,45,0.1,2.8,65,0.00,BKN,,0.00,WeatherDisplay:10.37,2013-07-27 18:17:00,
2013-07-27 14:22:00,93.6,80.0,29.89,NE,45,0.1,5.8,65,0.00,BKN,,0.00,WeatherDisplay:10.37,2013-07-27 18:22:00,
2013-07-27 14:27:00,91.0,79.4,29.89,NE,45,0.2,2.8,69,0.00,BKN,,0.00,WeatherDisplay:10.37,2013-07-27 18:27:00,
2013-07-27 14:32:00,91.2,79.6,29.89,NE,45,4.1,5.8,69,0.00,BKN,,0.00,WeatherDisplay:10.37,2013-07-27 18:32:00,
2013-07-27 14:37:00,91.2,79.2,29.89,NE,45,4.1,4.6,68,0.00,BKN,,0.00,WeatherDisplay:10.37,2013-07-27 18:37:00,
2013-07-27 14:42:00,90.7,79.1,29.88,NE,45,2.1,2.3,69,0.00,BKN,,0.00,WeatherDisplay:10.37,2013-07-27 18:42:00,
2013-07-27 14:47:00,89.4,79.6,29.89,NE,45,0.0,2.3,73,0.00,BKN,,0.00,WeatherDisplay:10.37,2013-07-27 18:47:00,
2013-07-27 14:52:00,87.4,78.9,29.89,NE,45,0.0,0.0,76,0.00,BKN,,0.00,WeatherDisplay:10.37,2013-07-27 18:52:00,
2013-07-27 14:57:00,87.3,79.2,29.89,North,0,0.0,4.6,77,0.00,BKN,,0.00,WeatherDisplay:10.37,2013-07-27 18:57:00,
2013-07-27 15:02:00,86.4,75.8,29.89,North,0,0.0,0.0,71,0.00,BKN,,0.00,WeatherDisplay:10.37,2013-07-27 19:02:00,
2013-07-27 15:07:00,85.3,74.0,29.89,North,0,2.1,2.8,69,0.00,BKN,,0.00,WeatherDisplay:10.37,2013-07-27 19:07:00,
2013-07-27 15:12:00,86.2,75.2,29.88,North,0,0.0,0.0,70,0.00,BKN,,0.00,WeatherDisplay:10.37,2013-07-27 19:12:00,
2013-07-27 15:17:00,87.8,77.2,29.88,NE,45,0.1,2.8,71,0.00,BKN,,0.00,WeatherDisplay:10.37,2013-07-27 19:17:00,
2013-07-27 15:22:00,89.2,77.7,29.88,NE,45,0.0,0.0,69,0.00,BKN,,0.00,WeatherDisplay:10.37,2013-07-27 19:22:00,
2013-07-27 15:27:00,89.2,77.7,29.88,NE,45,0.0,0.0,69,0.00,BKN,,0.00,WeatherDisplay:10.37,2013-07-27 19:27:00,
2013-07-27 15:32:00,90.3,78.3,29.87,North,0,3.8,3.8,68,0.00,BKN,,0.00,WeatherDisplay:10.37,2013-07-27 19:32:00,
2013-07-27 15:37:00,90.5,78.9,29.87,East,90,0.1,4.6,69,0.00,BKN,,0.00,WeatherDisplay:10.37,2013-07-27 19:37:00,
2013-07-27 15:42:00,90.5,78.9,29.87,NE,45,0.0,0.0,69,0.00,BKN,,0.00,WeatherDisplay:10.37,2013-07-27 19:42:00,
2013-07-27 15:47:00,90.3,78.3,29.86,NE,45,0.1,1.2,68,0.00,BKN,,0.00,WeatherDisplay:10.37,2013-07-27 19:47:00,
2013-07-27 15:52:00,89.8,77.8,29.87,NE,45,0.7,2.8,68,0.00,BKN,,0.00,WeatherDisplay:10.37,2013-07-27 19:52:00,
2013-07-27 15:57:00,89.8,77.4,29.86,NE,45,1.5,2.8,67,0.00,BKN,,0.00,WeatherDisplay:10.37,2013-07-27 19:57:00,
2013-07-27 16:02:00,89.8,78.7,29.86,NE,45,2.0,9.2,70,0.00,BKN,,0.00,WeatherDisplay:10.37,2013-07-27 20:02:00,
2013-07-27 16:07:00,89.4,78.3,29.86,NE,45,0.0,2.8,70,0.00,BKN,,0.00,WeatherDisplay:10.37,2013-07-27 20:07:00,
2013-07-27 16:12:00,89.8,78.2,29.86,SW,225,0.0,2.3,69,0.00,BKN,,0.00,WeatherDisplay:10.37,2013-07-27 20:12:00,
2013-07-27 16:17:00,90.1,77.7,29.85,East,90,1.8,2.3,67,0.00,BKN,,0.00,WeatherDisplay:10.37,2013-07-27 20:17:00,
2013-07-27 16:22:00,90.0,78.0,29.85,East,90,0.0,1.4,68,0.00,BKN,,0.00,WeatherDisplay:10.37,2013-07-27 20:22:00,
2013-07-27 16:27:00,90.0,75.7,29.85,East,90,3.8,4.6,63,0.00,BKN,,0.00,WeatherDisplay:10.37,2013-07-27 20:27:00,
2013-07-27 16:32:00,89.6,76.3,29.85,NE,45,0.0,0.0,65,0.00,BKN,,0.00,WeatherDisplay:10.37,2013-07-27 20:32:00,
2013-07-27 16:37:00,89.8,76.9,29.85,SE,135,0.0,4.6,66,0.00,BKN,,0.00,WeatherDisplay:10.37,2013-07-27 20:37:00,
2013-07-27 16:42:00,89.4,75.6,29.84,NE,45,0.0,0.0,64,0.00,BKN,,0.00,WeatherDisplay:10.37,2013-07-27 20:42:00,
2013-07-27 16:48:00,89.2,75.9,29.84,NE,45,0.0,0.0,65,0.00,BKN,,0.00,WeatherDisplay:10.37,2013-07-27 20:48:00,
2013-07-27 16:52:00,89.1,75.3,29.84,NE,45,0.0,0.0,64,0.00,BKN,,0.00,WeatherDisplay:10.37,2013-07-27 20:52:00,
2013-07-27 16:57:00,89.1,75.3,29.84,NE,45,0.0,0.0,64,0.00,BKN,,0.00,WeatherDisplay:10.37,2013-07-27 20:57:00,
2013-07-27 17:02:00,89.2,75.5,29.84,NE,45,0.0,0.0,64,0.00,BKN,,0.00,WeatherDisplay:10.37,2013-07-27 21:02:00,
2013-07-27 17:08:00,89.6,75.8,29.84,NE,45,0.0,0.0,64,0.00,SCT,,0.00,WeatherDisplay:10.37,2013-07-27 21:08:00,
2013-07-27 17:12:00,89.6,77.2,29.84,NE,45,0.0,0.0,67,0.00,SCT,,0.00,WeatherDisplay:10.37,2013-07-27 21:12:00,
2013-07-27 17:13:00,89.6,77.2,29.84,NE,45,0.0,0.0,67,0.00,SCT,,0.00,WeatherDisplay:10.37,2013-07-27 21:13:00,
2013-07-27 17:17:00,89.6,77.2,29.84,NE,45,0.0,0.0,67,0.00,SCT,,0.00,WeatherDisplay:10.37,2013-07-27 21:17:00,
2013-07-27 18:25:00,88.9,79.1,29.85,East,90,0.0,0.0,73,0.00,SCT,,0.00,WeatherDisplay:10.37,2013-07-27 22:25:00,
2013-07-27 18:30:00,88.5,79.6,29.87,South,180,0.0,0.0,75,0.00,SCT,,0.00,WeatherDisplay:10.37,2013-07-27 22:30:00,
2013-07-27 18:35:00,88.9,79.9,29.89,SE,135,0.0,0.0,75,0.00,SCT,,0.00,WeatherDisplay:10.37,2013-07-27 22:35:00,
2013-07-27 18:40:00,88.7,79.3,29.89,East,90,0.0,1.2,74,0.00,SCT,,0.00,WeatherDisplay:10.37,2013-07-27 22:40:00,
2013-07-27 18:45:00,88.5,79.2,29.89,SE,135,0.1,2.7,74,0.00,SCT,,0.00,WeatherDisplay:10.37,2013-07-27 22:45:00,
2013-07-27 18:50:00,88.3,79.4,29.89,SE,135,0.0,2.3,75,0.00,SCT,,0.00,WeatherDisplay:10.37,2013-07-27 22:50:00,
2013-07-27 18:55:00,88.0,79.1,29.89,South,180,0.0,0.0,75,0.00,SCT,,0.00,WeatherDisplay:10.37,2013-07-27 22:55:00,
2013-07-27 19:00:00,87.6,78.7,29.89,NE,45,0.0,0.0,75,0.00,SCT,,0.00,WeatherDisplay:10.37,2013-07-27 23:00:00,
2013-07-27 19:05:00,86.9,78.8,29.89,South,180,0.0,0.0,77,0.00,SCT,,0.00,WeatherDisplay:10.37,2013-07-27 23:05:00,
2013-07-27 19:10:00,86.9,78.4,29.89,South,180,0.0,0.0,76,0.00,SCT,,0.00,WeatherDisplay:10.37,2013-07-27 23:10:00,
2013-07-27 19:15:00,86.5,78.1,29.89,SE,135,0.0,0.0,76,0.00,SCT,,0.00,WeatherDisplay:10.37,2013-07-27 23:15:00,
2013-07-27 19:20:00,86.5,78.1,29.89,SE,135,0.0,0.0,76,0.00,SCT,,0.00,WeatherDisplay:10.37,2013-07-27 23:20:00,
2013-07-27 19:25:00,85.6,77.2,29.89,NE,45,0.0,0.0,76,0.00,SCT,,0.00,WeatherDisplay:10.37,2013-07-27 23:25:00,
2013-07-27 19:30:00,85.6,77.2,29.89,NE,45,0.0,0.0,76,0.00,SCT,,0.00,WeatherDisplay:10.37,2013-07-27 23:30:00,
2013-07-27 19:35:00,85.6,77.2,29.89,NE,45,0.0,0.0,76,0.00,SCT,,0.00,WeatherDisplay:10.37,2013-07-27 23:35:00,
2013-07-27 19:40:00,85.3,77.2,29.89,NE,45,0.1,2.7,77,0.00,SCT,,0.00,WeatherDisplay:10.37,2013-07-27 23:40:00,
2013-07-27 19:45:00,84.0,74.8,29.89,NW,315,2.1,5.8,74,0.00,SCT,,0.00,WeatherDisplay:10.37,2013-07-27 23:45:00,
2013-07-27 19:50:00,83.5,73.5,29.89,East,90,3.9,3.9,72,0.00,SCT,,0.00,WeatherDisplay:10.37,2013-07-27 23:50:00,
2013-07-27 19:55:00,83.1,74.4,29.89,NE,45,0.0,2.3,75,0.00,SCT,,0.00,WeatherDisplay:10.37,2013-07-27 23:55:00,
2013-07-27 20:00:00,82.8,73.2,29.89,North,0,0.0,0.0,73,0.00,SCT,,0.00,WeatherDisplay:10.37,2013-07-28 00:00:00,
2013-07-27 20:05:00,82.8,73.2,29.89,NE,45,0.0,1.4,73,0.00,SCT,,0.00,WeatherDisplay:10.37,2013-07-28 00:05:00,
2013-07-27 20:10:00,82.4,72.9,29.90,NE,45,3.9,3.9,73,0.00,SCT,,0.00,WeatherDisplay:10.37,2013-07-28 00:10:00,
2013-07-27 20:15:00,81.9,72.8,29.90,NE,45,2.9,2.9,74,0.00,SCT,,0.00,WeatherDisplay:10.37,2013-07-28 00:15:00,
2013-07-27 20:20:00,81.5,72.4,29.89,NE,45,3.1,3.1,74,0.00,SCT,,0.00,WeatherDisplay:10.37,2013-07-28 00:20:00,
2013-07-27 20:25:00,81.1,72.5,29.89,NE,45,0.0,0.0,75,0.00,SCT,,0.00,WeatherDisplay:10.37,2013-07-28 00:25:00,
2013-07-27 20:30:00,80.8,72.1,29.89,NE,45,0.0,0.0,75,0.00,SCT,,0.00,WeatherDisplay:10.37,2013-07-28 00:30:00,
2013-07-27 20:35:00,80.4,72.2,29.89,NE,45,0.0,0.0,76,0.00,SCT,,0.00,WeatherDisplay:10.37,2013-07-28 00:35:00,
2013-07-27 20:40:00,80.2,72.0,29.90,NE,45,0.0,0.0,76,0.00,SCT,,0.00,WeatherDisplay:10.37,2013-07-28 00:40:00,
2013-07-27 20:45:00,80.2,72.4,29.90,NE,45,0.0,0.0,77,0.00,SCT,,0.00,WeatherDisplay:10.37,2013-07-28 00:45:00,
2013-07-27 20:50:00,79.9,72.8,29.91,NE,45,0.0,0.0,79,0.00,SCT,,0.00,WeatherDisplay:10.37,2013-07-28 00:50:00,
2013-07-27 20:55:00,79.5,72.4,29.90,NE,45,0.0,0.0,79,0.00,SCT,,0.00,WeatherDisplay:10.37,2013-07-28 00:55:00,
2013-07-27 21:00:00,79.5,72.8,29.90,NE,45,0.0,0.0,80,0.00,SCT,,0.00,WeatherDisplay:10.37,2013-07-28 01:00:00,
2013-07-27 21:05:00,79.3,72.6,29.90,NE,45,0.0,0.0,80,0.00,SCT,,0.00,WeatherDisplay:10.37,2013-07-28 01:05:00,
2013-07-27 21:10:00,79.2,73.2,29.90,NE,45,0.0,0.0,82,0.00,SCT,,0.00,WeatherDisplay:10.37,2013-07-28 01:10:00,
2013-07-27 21:15:00,79.0,73.0,29.90,NE,45,0.0,0.0,82,0.00,SCT,,0.00,WeatherDisplay:10.37,2013-07-28 01:15:00,
2013-07-27 21:20:00,78.8,73.2,29.91,NE,45,0.0,0.0,83,0.00,SCT,,0.00,WeatherDisplay:10.37,2013-07-28 01:20:00,
2013-07-27 21:25:00,78.6,73.0,29.91,NE,45,0.0,0.0,83,0.00,SCT,,0.00,WeatherDisplay:10.37,2013-07-28 01:25:00,
2013-07-27 21:30:00,78.6,73.4,29.92,NE,45,0.0,0.0,84,0.00,SCT,,0.00,WeatherDisplay:10.37,2013-07-28 01:30:00,
2013-07-27 21:35:00,78.4,73.2,29.91,NE,45,0.0,0.0,84,0.00,SCT,,0.00,WeatherDisplay:10.37,2013-07-28 01:35:00,
2013-07-27 21:40:00,78.3,73.0,29.92,NE,45,0.0,0.0,84,0.00,SCT,,0.00,WeatherDisplay:10.37,2013-07-28 01:40:00,
2013-07-27 21:45:00,78.1,72.8,29.92,NE,45,0.0,0.0,84,0.00,SCT,,0.00,WeatherDisplay:10.37,2013-07-28 01:45:00,
2013-07-27 21:50:00,78.1,73.2,29.92,NE,45,0.0,0.0,85,0.00,SCT,,0.00,WeatherDisplay:10.37,2013-07-28 01:50:00,
2013-07-27 21:55:00,78.1,73.2,29.92,NE,45,0.0,0.0,85,0.00,SCT,,0.00,WeatherDisplay:10.37,2013-07-28 01:55:00,
2013-07-27 22:00:00,78.1,73.2,29.92,NE,45,0.0,0.0,85,0.00,SCT,,0.00,WeatherDisplay:10.37,2013-07-28 02:00:00,
2013-07-27 22:05:00,78.1,73.5,29.92,NE,45,0.0,0.0,86,0.00,SCT,,0.00,WeatherDisplay:10.37,2013-07-28 02:05:00,
2013-07-27 22:10:00,77.7,73.2,29.91,NE,45,0.0,0.0,86,0.00,SCT,,0.00,WeatherDisplay:10.37,2013-07-28 02:10:00,
2013-07-27 22:15:00,77.7,73.2,29.92,NE,45,0.0,0.0,86,0.00,SCT,,0.00,WeatherDisplay:10.37,2013-07-28 02:15:00,
2013-07-27 22:20:00,77.7,73.2,29.92,NE,45,0.0,0.0,86,0.00,SCT,,0.00,WeatherDisplay:10.37,2013-07-28 02:20:00,
2013-07-27 22:25:00,77.5,73.4,29.92,NE,45,0.0,0.0,87,0.00,SCT,,0.00,WeatherDisplay:10.37,2013-07-28 02:25:00,
2013-07-27 22:30:00,77.4,73.2,29.92,NE,45,0.0,0.0,87,0.00,SCT,,0.00,WeatherDisplay:10.37,2013-07-28 02:30:00,
2013-07-27 22:35:00,77.2,73.0,29.92,NE,45,0.0,0.0,87,0.00,SCT,,0.00,WeatherDisplay:10.37,2013-07-28 02:35:00,
2013-07-27 22:40:00,76.8,73.0,29.92,NE,45,0.0,0.0,88,0.00,SCT,,0.00,WeatherDisplay:10.37,2013-07-28 02:40:00,
2013-07-27 22:45:00,76.8,73.0,29.92,NE,45,0.0,0.0,88,0.00,SCT,,0.00,WeatherDisplay:10.37,2013-07-28 02:45:00,
2013-07-27 22:50:00,76.6,72.8,29.92,NE,45,0.0,0.0,88,0.00,SCT,,0.00,WeatherDisplay:10.37,2013-07-28 02:50:00,
2013-07-27 22:55:00,76.6,73.2,29.91,NE,45,0.0,0.0,89,0.00,SCT,,0.00,WeatherDisplay:10.37,2013-07-28 02:55:00,
2013-07-27 23:00:00,76.5,73.3,29.91,NE,45,0.0,0.0,90,0.00,SCT,,0.00,WeatherDisplay:10.37,2013-07-28 03:00:00,
2013-07-27 23:05:00,76.3,73.1,29.91,NE,45,0.0,0.0,90,0.00,SCT,,0.00,WeatherDisplay:10.37,2013-07-28 03:05:00,
2013-07-27 23:10:00,76.1,73.0,29.91,NE,45,0.0,0.0,90,0.00,SCT,,0.00,WeatherDisplay:10.37,2013-07-28 03:10:00,
2013-07-27 23:15:00,75.9,72.8,29.91,NE,45,0.0,0.0,90,0.00,SCT,,0.00,WeatherDisplay:10.37,2013-07-28 03:15:00,
2013-07-27 23:20:00,75.9,73.1,29.91,NE,45,0.0,0.0,91,0.00,SCT,,0.00,WeatherDisplay:10.37,2013-07-28 03:20:00,
2013-07-27 23:25:00,75.7,72.9,29.91,NE,45,0.0,0.0,91,0.00,SCT,,0.00,WeatherDisplay:10.37,2013-07-28 03:25:00,
2013-07-27 23:30:00,75.7,72.9,29.91,NE,45,0.0,0.0,91,0.00,SCT,,0.00,WeatherDisplay:10.37,2013-07-28 03:30:00,
2013-07-27 23:35:00,75.6,73.1,29.91,NE,45,0.0,0.0,92,0.00,SCT,,0.00,WeatherDisplay:10.37,2013-07-28 03:35:00,
2013-07-27 23:40:00,75.6,73.1,29.91,NE,45,0.0,0.0,92,0.00,SCT,,0.00,WeatherDisplay:10.37,2013-07-28 03:40:00,
2013-07-27 23:45:00,75.6,73.1,29.91,NE,45,0.0,0.0,92,0.00,SCT,,0.00,WeatherDisplay:10.37,2013-07-28 03:45:00,
2013-07-27 23:50:00,75.4,72.9,29.91,NE,45,0.0,0.0,92,0.00,SCT,,0.00,WeatherDisplay:10.37,2013-07-28 03:50:00,
2013-07-27 23:55:00,75.6,73.4,29.91,NE,45,0.0,0.0,93,0.00,SCT,,0.00,WeatherDisplay:10.37,2013-07-28 03:55:00,